Regional Weather Roundup
Issued by NWS

Home | Current Version | Previous Version | Text Only | Print | Product List | Glossary On
Versions: 1 2 3 4 5 6 7 8 9 10 11 12 13 14 15 16 17 18 19 20 21 22 23 24 25 26 27 28 29 30 31 32 33 34 35 36 37 38 39 40 41 42 43 44 45 46 47 48 49 50
000
ASUS44 KOUN 162000
RWROK

WEATHER ROUNDUP FOR OKLAHOMA
NATIONAL WEATHER SERVICE NORMAN OK
300 PM CDT TUE SEP 16 2014

NOTE: "FAIR" INDICATES FEW OR NO CLOUDS BELOW 12,000 FEET WITH NO
      SIGNIFICANT WEATHER AND/OR OBSTRUCTIONS TO VISIBILITY.

OKZ001>007-009>012-014-015-017-162100-
NORTHWEST OKLAHOMA AND THE PANHANDLE

CITY           SKY/WX    TMP DP  RH WIND       PRES   REMARKS
GAGE           SUNNY     82  64  54 S9        30.10F
ENID/WOODRING  PTSUNNY   81  64  57 NE6       30.08F
$$

OKZ016-021>023-033>039-044-045-162100-
SOUTHWEST OKLAHOMA

CITY           SKY/WX    TMP DP  RH WIND       PRES   REMARKS
LAWTON/REGL    PTSUNNY   88  65  46 S7        30.05F HX  90
LAWTON/FT SILL MOSUNNY   89  68  49 VRB7      30.05F HX  92
FREDERICK      PTSUNNY   87  66  49 S8        30.04F
CLINTON        MOSUNNY   87  65  47 SE7       30.10F
HOBART         PTSUNNY   88  65  46 SW5       30.07F HX  90
$$

OKZ018>020-024>031-162100-
CENTRAL OKLAHOMA

CITY           SKY/WX    TMP DP  RH WIND       PRES   REMARKS
OKLAHOMA CITY  PTSUNNY   87  68  52 SE3       30.07F HX  90
OKC/WILEY POST SUNNY     83  70  64 CALM      30.07F
OKC/TINKER AFB MOSUNNY   85  71  64 VRB6      30.07F HX  90
STILLWATER     CLOUDY    78  65  63 VRB3      30.09F
GUTHRIE        CLOUDY    81  69  67 VRB7      30.08F
$$

OKZ008-013-054>072-162100-
NORTHEAST OKLAHOMA

CITY           SKY/WX    TMP DP  RH WIND       PRES   REMARKS
TULSA          CLOUDY    73  62  68 NW5       30.09F
TULSA/JONES    CLOUDY    75  64  68 N6        30.10F
PONCA CITY     CLOUDY    72  62  71 SE6       30.10F
BARTLESVILLE   CLOUDY    71  64  78 VRB5      30.12F
MUSKOGEE       CLOUDY    78  69  73 N8        30.09F
$$

OKZ032-040>043-046>053-073>077-162100-
SOUTH CENTRAL/SOUTHEAST OKLAHOMA

CITY           SKY/WX    TMP DP  RH WIND       PRES   REMARKS
MCALESTER      SUNNY     87  68  52 CALM      30.06F HX  90
$$



USA.gov is the U.S. government's official web portal to all federal, state and local government web resources and services.